{"data":{"norad_id":44637,"intl_designator":"2019-070A","name":"TJS-4","alt_names":[],"object_type":"PAYLOAD","status":"ACTIVE","operator":null,"country":"PRC","launch_date":"2019-10-17","launch_site_code":"XICLF","launch_vehicle":null,"mission":null,"orbit_class":"UNKNOWN","rcs_meters":null,"size_class":null,"mass_kg":null,"dimensions":null,"purposes":["comms"],"wikipedia_slug":null,"has_3d_model":false,"image_url":null,"decayed_at":null,"tle_current":{"epoch":"2026-09-20T03:37:55.826976Z","epoch_age_seconds":52115,"freshness":"FRESH","line1":"1 44637U 19070A   26263.15134059 -.00000174  00000+0  00000+0 0  9999","line2":"2 44637   0.0615  93.8481 0003091 157.7691 245.4391  1.00274133 25499","mean_motion":1.00274133,"eccentricity":0.0003091,"inclination_deg":0.0615,"raan_deg":93.8481,"arg_perigee_deg":157.7691,"mean_anomaly_deg":245.4391,"bstar":0,"rev_number":2549,"period_min":1436.0632766578,"perigee_km":35772.903829206,"apogee_km":35798.969659594,"semimajor_km":42164.0737444,"source":"CELESTRAK","updated_at":"2026-09-20T09:00:35.290333Z"}}}